| time (UTC) | temp F | wind direction | speed knots | gust knots | rain 1hr in | rain 24hr in | rain mn in | humidity % | barometer mb |
| 20260508060532 | 69 | 279 | 0.0 | 0.0 | 0.00 | 0.00 | 0.00 | 100 | 1017.1 |
| 20260508060141 | 68 | 279 | 0.0 | 0.0 | 0.00 | 0.00 | 0.00 | 100 | 1017.2 |
| 20260508060032 | 68 | 279 | 0.0 | 0.0 | 0.00 | 0.00 | 0.00 | 100 | 1017.1 |
| 20260508055532 | 68 | 279 | 0.0 | 0.0 | 0.00 | 0.00 | 0.00 | 100 | 1017.2 |
| 20260508055032 | 68 | 279 | 0.0 | 0.0 | 0.00 | 0.00 | 0.00 | 100 | 1017.3 |
| 20260508054532 | 68 | 279 | 0.0 | 0.0 | 0.00 | 0.00 | 0.00 | 100 | 1017.3 |
| 20260508054032 | 68 | 279 | 0.0 | 0.0 | 0.00 | 0.00 | 0.00 | 100 | 1017.3 |
| 20260508053532 | 67 | 279 | 0.0 | 0.0 | 0.00 | 0.00 | 0.00 | 100 | 1017.4 |
| 20260508053440 | 68 | 279 | 0.0 | 0.0 | 0.00 | 0.00 | 0.00 | 100 | 1017.4 |
| 20260508053032 | 68 | 279 | 0.0 | 0.0 | 0.00 | 0.00 | 0.00 | 100 | 1017.4 |
| 20260508052532 | 68 | 279 | 0.0 | 0.0 | 0.00 | 0.00 | 0.00 | 100 | 1017.4 |
| 20260508052413 | 68 | 279 | 0.0 | 0.0 | 0.00 | 0.00 | 0.00 | 100 | 1017.4 |
| 20260508052032 | 68 | 279 | 0.0 | 0.0 | 0.00 | 0.00 | 0.00 | 100 | 1017.4 |
| 20260508052009 | 68 | 279 | 0.0 | 0.0 | 0.00 | 0.00 | 0.00 | 100 | 1017.4 |
| 20260508051532 | 68 | 279 | 0.0 | 0.0 | 0.00 | 0.00 | 0.00 | 100 | 1017.4 |
| 20260508051350 | 69 | 279 | 0.0 | 0.0 | 0.00 | 0.00 | 0.00 | 100 | 1017.5 |
| 20260508051032 | 68 | 279 | 0.0 | 0.0 | 0.00 | 0.00 | 0.00 | 100 | 1017.5 |
| 20260508050532 | 69 | 279 | 0.0 | 0.0 | 0.00 | 0.00 | 0.00 | 100 | 1017.5 |
| 20260508050526 | 70 | 279 | 0.0 | 0.0 | 0.00 | 0.00 | 0.00 | 100 | 1017.6 |
| 20260508050032 | 70 | 279 | 0.0 | 0.0 | 0.00 | 0.00 | 0.00 | 100 | 1017.5 |
| 20260508045532 | 70 | 279 | 0.0 | 0.0 | 0.00 | 0.00 | 0.00 | 100 | 1017.5 |
| 20260508045032 | 69 | 279 | 0.0 | 0.0 | 0.00 | 0.00 | 0.00 | 100 | 1017.5 |
| 20260508044532 | 70 | 279 | 0.0 | 0.0 | 0.00 | 0.00 | 0.00 | 100 | 1017.5 |
| 20260508044032 | 70 | 279 | 0.0 | 0.0 | 0.00 | 0.00 | 0.00 | 100 | 1017.5 |
| 20260508043532 | 70 | 279 | 0.0 | 0.0 | 0.00 | 0.00 | 0.00 | 100 | 1017.5 |
| 20260508043032 | 70 | 279 | 0.0 | 0.0 | 0.00 | 0.00 | 0.00 | 100 | 1017.6 |
| 20260508042532 | 70 | 279 | 0.0 | 0.0 | 0.00 | 0.00 | 0.00 | 100 | 1017.6 |
| 20260508042157 | 71 | 279 | 0.0 | 0.0 | 0.00 | 0.00 | 0.00 | 100 | 1017.6 |
| 20260508042032 | 71 | 279 | 0.0 | 0.0 | 0.00 | 0.00 | 0.00 | 100 | 1017.6 |
| 20260508041532 | 71 | 279 | 0.0 | 0.0 | 0.00 | 0.00 | 0.00 | 100 | 1017.6 |
| 20260508041032 | 71 | 279 | 0.0 | 0.0 | 0.00 | 0.00 | 0.00 | 100 | 1017.7 |
| 20260508040532 | 71 | 279 | 0.0 | 0.0 | 0.00 | 0.00 | 0.00 | 100 | 1017.7 |
| 20260508040032 | 71 | 279 | 0.0 | 0.0 | 0.00 | 0.00 | 0.00 | 100 | 1017.7 |
| 20260508035532 | 71 | 279 | 0.0 | 0.9 | 0.00 | 0.00 | 0.00 | 100 | 1017.8 |
| 20260508035032 | 71 | 279 | 0.9 | 2.6 | 0.00 | 0.00 | 0.00 | 100 | 1017.9 |
| 20260508034532 | 71 | 264 | 0.0 | 2.6 | 0.00 | 0.00 | 0.00 | 100 | 1017.9 |
| 20260508034032 | 71 | 310 | 2.6 | 3.5 | 0.00 | 0.00 | 0.00 | 100 | 1018.0 |
| 20260508033532 | 71 | 317 | 1.7 | 3.5 | 0.00 | 0.00 | 0.00 | 100 | 1017.9 |
| 20260508033032 | 71 | 320 | 0.0 | 0.0 | 0.00 | 0.00 | 0.00 | 100 | 1017.9 |
| 20260508032532 | 70 | 320 | 0.0 | 0.0 | 0.00 | 0.00 | 0.00 | 100 | 1017.8 |
| 20260508032032 | 70 | 320 | 0.0 | 0.0 | 0.00 | 0.00 | 0.00 | 100 | 1017.8 |
| 20260508031533 | 71 | 320 | 0.0 | 0.9 | 0.00 | 0.00 | 0.00 | 100 | 1017.8 |
| 20260508031032 | 71 | 279 | 0.0 | 1.7 | 0.00 | 0.00 | 0.00 | 100 | 1017.7 |
| 20260508030532 | 71 | 293 | 0.0 | 1.7 | 0.00 | 0.00 | 0.00 | 100 | 1017.7 |
| 20260508030032 | 71 | 282 | 0.9 | 1.7 | 0.00 | 0.00 | 0.00 | 100 | 1017.7 |
| 20260508025532 | 71 | 274 | 0.9 | 0.9 | 0.00 | 0.00 | 0.00 | 100 | 1017.7 |
| 20260508025032 | 71 | 282 | 0.9 | 1.7 | 0.00 | 0.00 | 0.00 | 100 | 1017.7 |
| 20260508024532 | 71 | 277 | 1.7 | 1.7 | 0.00 | 0.00 | 0.00 | 100 | 1017.7 |
| 20260508024032 | 71 | 254 | 0.0 | 2.6 | 0.00 | 0.00 | 0.00 | 100 | 1017.8 |
| 20260508023532 | 71 | 279 | 0.9 | 2.6 | 0.00 | 0.00 | 0.00 | 100 | 1017.7 |
| 20260508023032 | 71 | 296 | 0.9 | 1.7 | 0.00 | 0.00 | 0.00 | 100 | 1017.7 |
| 20260508022532 | 71 | 295 | 0.0 | 0.0 | 0.00 | 0.00 | 0.00 | 100 | 1017.7 |
| 20260508022032 | 71 | 295 | 0.0 | 0.9 | 0.00 | 0.00 | 0.00 | 100 | 1017.7 |
| 20260508021532 | 72 | 288 | 0.0 | 2.6 | 0.00 | 0.00 | 0.00 | 100 | 1017.8 |
| 20260508021033 | 72 | 306 | 0.0 | 1.7 | 0.00 | 0.00 | 0.00 | 100 | 1017.8 |
| 20260508020533 | 72 | 302 | 0.9 | 2.6 | 0.00 | 0.00 | 0.00 | 100 | 1017.8 |
| 20260508020033 | 72 | 312 | 0.9 | 2.6 | 0.00 | 0.00 | 0.00 | 100 | 1017.7 |
| 20260508015533 | 72 | 320 | 1.7 | 2.6 | 0.00 | 0.00 | 0.00 | 100 | 1017.7 |
| 20260508015033 | 72 | 310 | 0.9 | 3.5 | 0.00 | 0.00 | 0.00 | 100 | 1017.8 |
| 20260508014533 | 72 | 288 | 0.0 | 2.6 | 0.00 | 0.00 | 0.00 | 100 | 1017.7 |
| 20260508014033 | 72 | 295 | 0.0 | 0.0 | 0.00 | 0.00 | 0.00 | 100 | 1017.6 |
| 20260508013533 | 73 | 295 | 0.0 | 1.7 | 0.00 | 0.00 | 0.00 | 100 | 1017.6 |
| 20260508013033 | 73 | 288 | 0.9 | 2.6 | 0.00 | 0.00 | 0.00 | 100 | 1017.6 |
| 20260508012533 | 73 | 310 | 1.7 | 2.6 | 0.00 | 0.00 | 0.00 | 100 | 1017.6 |
| 20260508012256 | 73 | 296 | 0.0 | 2.6 | 0.00 | 0.00 | 0.00 | 100 | 1017.5 |
| 20260508012033 | 74 | 312 | 1.7 | 2.6 | 0.00 | 0.00 | 0.00 | 100 | 1017.5 |
| 20260508011533 | 73 | 296 | 0.0 | 2.6 | 0.00 | 0.00 | 0.00 | 100 | 1017.5 |
| 20260508011033 | 74 | 271 | 0.9 | 1.7 | 0.00 | 0.00 | 0.00 | 100 | 1017.5 |
| 20260508010812 | 74 | 303 | 0.0 | 0.0 | 0.00 | 0.00 | 0.00 | 100 | 1017.4 |
| 20260508010533 | 74 | 303 | 0.0 | 0.0 | 0.00 | 0.00 | 0.00 | 100 | 1017.4 |
| 20260508010033 | 74 | 303 | 0.0 | 0.0 | 0.00 | 0.00 | 0.00 | 100 | 1017.4 |
| 20260508005533 | 75 | 303 | 0.0 | 2.6 | 0.00 | 0.00 | 0.00 | 100 | 1017.4 |
| 20260508005254 | 76 | 274 | 0.0 | 0.0 | 0.00 | 0.00 | 0.00 | 100 | 1017.2 |
| 20260508005033 | 75 | 267 | 0.9 | 2.6 | 0.00 | 0.00 | 0.00 | 100 | 1017.4 |
| 20260508004533 | 75 | 319 | 0.9 | 1.7 | 0.00 | 0.00 | 0.00 | 100 | 1017.3 |
| 20260508004033 | 75 | 274 | 0.9 | 0.9 | 0.00 | 0.00 | 0.00 | 100 | 1017.3 |
| 20260508003533 | 75 | 274 | 0.0 | 0.0 | 0.00 | 0.00 | 0.00 | 100 | 1017.3 |
| 20260508003033 | 75 | 274 | 0.0 | 0.0 | 0.00 | 0.00 | 0.00 | 100 | 1017.2 |
| 20260508002533 | 76 | 274 | 0.0 | 0.0 | 0.00 | 0.00 | 0.00 | 100 | 1017.2 |
| 20260508002359 | 82 | 295 | 0.9 | 4.3 | 0.00 | 0.00 | 0.00 | 100 | 1017.1 |
| 20260508002033 | 77 | 274 | 0.0 | 0.0 | 0.00 | 0.00 | 0.00 | 100 | 1017.2 |
| 20260508001533 | 78 | 274 | 0.0 | 0.0 | 0.00 | 0.00 | 0.00 | 100 | 1017.2 |
| 20260508001033 | 79 | 274 | 0.0 | 0.0 | 0.00 | 0.00 | 0.00 | 100 | 1017.1 |
| 20260508000533 | 80 | 274 | 0.0 | 0.0 | 0.00 | 0.00 | 0.00 | 100 | 1017.1 |
| 20260508000033 | 80 | 274 | 0.0 | 2.6 | 0.00 | 0.00 | 0.00 | 100 | 1017.0 |
| 20260507235533 | 81 | 284 | 0.9 | 1.7 | 0.00 | 0.00 | 0.00 | 100 | 1017.0 |
| 20260507235033 | 81 | 279 | 0.9 | 4.3 | 0.00 | 0.00 | 0.00 | 100 | 1017.0 |
| 20260507234533 | 82 | 295 | 0.9 | 3.5 | 0.00 | 0.00 | 0.00 | 100 | 1017.1 |
| 20260507234033 | 82 | 295 | 0.9 | 4.3 | 0.00 | 0.00 | 0.00 | 100 | 1017.1 |
| 20260507233533 | 83 | 299 | 0.0 | 2.6 | 0.00 | 0.00 | 0.00 | 100 | 1017.1 |
| 20260507233033 | 83 | 286 | 0.0 | 6.1 | 0.00 | 0.00 | 0.00 | 100 | 1017.0 |
| 20260507232533 | 83 | 306 | 0.9 | 5.2 | 0.00 | 0.00 | 0.00 | 100 | 1017.0 |
| 20260507232033 | 84 | 295 | 3.5 | 7.0 | 0.00 | 0.00 | 0.00 | 100 | 1017.0 |
| 20260507231533 | 84 | 300 | 2.6 | 5.2 | 0.00 | 0.00 | 0.00 | 100 | 1017.0 |
| 20260507231033 | 85 | 298 | 0.9 | 6.1 | 0.00 | 0.00 | 0.00 | 100 | 1016.9 |
| 20260507230533 | 85 | 317 | 1.7 | 4.3 | 0.00 | 0.00 | 0.00 | 100 | 1016.8 |
| 20260507230033 | 85 | 282 | 1.7 | 6.1 | 0.00 | 0.00 | 0.00 | 100 | 1016.8 |
| 20260507225533 | 86 | 327 | 1.7 | 6.1 | 0.00 | 0.00 | 0.00 | 100 | 1016.8 |
| 20260507225033 | 86 | 312 | 5.2 | 8.7 | 0.00 | 0.00 | 0.00 | 100 | 1016.8 |
| 20260507224533 | 86 | 334 | 7.0 | 7.0 | 0.00 | 0.00 | 0.00 | 100 | 1016.8 |
| 20260507224033 | 86 | 267 | 3.5 | 7.0 | 0.00 | 0.00 | 0.00 | 100 | 1016.7 |
| 20260507223533 | 86 | 264 | 5.2 | 7.8 | 0.00 | 0.00 | 0.00 | 100 | 1016.7 |
| 20260507223033 | 86 | 295 | 2.6 | 8.7 | 0.00 | 0.00 | 0.00 | 100 | 1016.7 |
| 20260507222533 | 87 | 289 | 1.7 | 8.7 | 0.00 | 0.00 | 0.00 | 100 | 1016.7 |
| 20260507222033 | 87 | 284 | 2.6 | 9.6 | 0.00 | 0.00 | 0.00 | 100 | 1016.7 |
| 20260507221534 | 87 | 270 | 1.7 | 6.1 | 0.00 | 0.00 | 0.00 | 100 | 1016.8 |
| 20260507221034 | 87 | 313 | 3.5 | 6.1 | 0.00 | 0.00 | 0.00 | 100 | 1016.7 |
| 20260507220534 | 87 | 281 | 2.6 | 6.1 | 0.00 | 0.00 | 0.00 | 100 | 1016.8 |
| 20260507220034 | 87 | 268 | 3.5 | 7.8 | 0.00 | 0.00 | 0.00 | 100 | 1016.7 |
| 20260507215534 | 88 | 288 | 0.9 | 11.3 | 0.00 | 0.00 | 0.00 | 100 | 1016.7 |
| 20260507215034 | 87 | 312 | 1.7 | 8.7 | 0.00 | 0.00 | 0.00 | 100 | 1016.7 |
| 20260507214534 | 88 | 338 | 5.2 | 9.6 | 0.00 | 0.00 | 0.00 | 100 | 1016.8 |
| 20260507214034 | 89 | 310 | 5.2 | 7.0 | 0.00 | 0.00 | 0.00 | 100 | 1016.8 |
| 20260507213830 | 90 | 305 | 5.2 | 9.6 | 0.00 | 0.00 | 0.00 | 100 | 1016.8 |
| 20260507213534 | 89 | 326 | 7.0 | 9.6 | 0.00 | 0.00 | 0.00 | 100 | 1016.7 |
| 20260507213034 | 90 | 307 | 8.7 | 9.6 | 0.00 | 0.00 | 0.00 | 100 | 1016.7 |
| 20260507212534 | 90 | 305 | 5.2 | 9.6 | 0.00 | 0.00 | 0.00 | 100 | 1016.8 |
| 20260507212034 | 90 | 315 | 6.1 | 10.4 | 0.00 | 0.00 | 0.00 | 100 | 1016.8 |
| 20260507211534 | 90 | 317 | 5.2 | 7.8 | 0.00 | 0.00 | 0.00 | 100 | 1016.8 |
| 20260507211034 | 92 | 291 | 2.6 | 7.8 | 0.00 | 0.00 | 0.00 | 100 | 1016.9 |
| 20260507210534 | 91 | 261 | 7.0 | 8.7 | 0.00 | 0.00 | 0.00 | 100 | 1017.0 |
| 20260507210034 | 92 | 317 | 4.3 | 12.2 | 0.00 | 0.00 | 0.00 | 100 | 1017.0 |
| 20260507205717 | 91 | 289 | 4.3 | 10.4 | 0.00 | 0.00 | 0.00 | 100 | 1017.0 |
| 20260507205534 | 92 | 307 | 4.3 | 10.4 | 0.00 | 0.00 | 0.00 | 100 | 1017.0 |
| 20260507205034 | 92 | 262 | 2.6 | 13.0 | 0.00 | 0.00 | 0.00 | 100 | 1017.0 |
| 20260507204534 | 92 | 270 | 5.2 | 10.4 | 0.00 | 0.00 | 0.00 | 100 | 1017.0 |
| 20260507204034 | 91 | 286 | 4.3 | 12.2 | 0.00 | 0.00 | 0.00 | 100 | 1017.0 |
| 20260507203534 | 91 | 289 | 4.3 | 10.4 | 0.00 | 0.00 | 0.00 | 100 | 1017.0 |
| 20260507203307 | 91 | 327 | 2.6 | 11.3 | 0.00 | 0.00 | 0.00 | 100 | 1017.0 |
| 20260507203034 | 92 | 312 | 2.6 | 9.6 | 0.00 | 0.00 | 0.00 | 100 | 1017.0 |
| 20260507202534 | 91 | 327 | 2.6 | 11.3 | 0.00 | 0.00 | 0.00 | 100 | 1017.0 |
| 20260507202320 | 91 | 268 | 4.3 | 13.0 | 0.00 | 0.00 | 0.00 | 100 | 1017.0 |
| 20260507202034 | 91 | 268 | 4.3 | 13.0 | 0.00 | 0.00 | 0.00 | 100 | 1017.0 |
| 20260507201534 | 92 | 237 | 4.3 | 10.4 | 0.00 | 0.00 | 0.00 | 100 | 1017.0 |
| 20260507201034 | 93 | 296 | 1.7 | 9.6 | 0.00 | 0.00 | 0.00 | 100 | 1017.0 |
| 20260507200550 | 93 | 324 | 9.6 | 11.3 | 0.00 | 0.00 | 0.00 | 100 | 1017.1 |
| 20260507200534 | 93 | 284 | 6.1 | 9.6 | 0.00 | 0.00 | 0.00 | 100 | 1017.0 |
| 20260507200034 | 93 | 324 | 9.6 | 11.3 | 0.00 | 0.00 | 0.00 | 100 | 1017.1 |
| 20260507195534 | 93 | 265 | 3.5 | 9.6 | 0.00 | 0.00 | 0.00 | 100 | 1017.0 |
| 20260507195034 | 93 | 337 | 1.7 | 10.4 | 0.00 | 0.00 | 0.00 | 100 | 1017.1 |
| 20260507194534 | 93 | 358 | 3.5 | 7.8 | 0.00 | 0.00 | 0.00 | 100 | 1017.1 |
| 20260507194217 | 91 | 262 | 10.4 | 12.2 | 0.00 | 0.00 | 0.00 | 100 | 1017.3 |
| 20260507194034 | 94 | 275 | 1.7 | 7.8 | 0.00 | 0.00 | 0.00 | 100 | 1017.3 |
| 20260507193534 | 92 | 272 | 1.7 | 9.6 | 0.00 | 0.00 | 0.00 | 100 | 1017.3 |
| 20260507193034 | 91 | 255 | 8.7 | 11.3 | 0.00 | 0.00 | 0.00 | 100 | 1017.3 |
| 20260507192534 | 91 | 262 | 10.4 | 12.2 | 0.00 | 0.00 | 0.00 | 100 | 1017.3 |
| 20260507192516 | 92 | 279 | 4.3 | 11.3 | 0.00 | 0.00 | 0.00 | 100 | 1017.6 |
| 20260507192034 | 92 | 230 | 4.3 | 9.6 | 0.00 | 0.00 | 0.00 | 100 | 1017.3 |
| 20260507191534 | 92 | 251 | 5.2 | 12.2 | 0.00 | 0.00 | 0.00 | 100 | 1017.4 |
| 20260507191034 | 93 | 264 | 4.3 | 10.4 | 0.00 | 0.00 | 0.00 | 100 | 1017.5 |
| 20260507190534 | 92 | 279 | 4.3 | 11.3 | 0.00 | 0.00 | 0.00 | 100 | 1017.6 |
| 20260507190513 | 92 | 285 | 5.2 | 11.3 | 0.00 | 0.00 | 0.00 | 100 | 1018.3 |
| 20260507190034 | 92 | 232 | 7.0 | 9.6 | 0.00 | 0.00 | 0.00 | 100 | 1017.6 |
| 20260507185534 | 92 | 255 | 4.3 | 10.4 | 0.00 | 0.00 | 0.00 | 100 | 1017.8 |
| 20260507185034 | 91 | 217 | 4.3 | 11.3 | 0.00 | 0.00 | 0.00 | 100 | 1017.9 |
| 20260507184534 | 91 | 282 | 4.3 | 10.4 | 0.00 | 0.00 | 0.00 | 100 | 1018.0 |
| 20260507184034 | 93 | 270 | 5.2 | 9.6 | 0.00 | 0.00 | 0.00 | 100 | 1018.0 |
| 20260507183534 | 92 | 271 | 5.2 | 11.3 | 0.00 | 0.00 | 0.00 | 100 | 1018.2 |
| 20260507183034 | 92 | 246 | 3.5 | 8.7 | 0.00 | 0.00 | 0.00 | 100 | 1018.1 |
| 20260507182534 | 92 | 260 | 7.8 | 12.2 | 0.00 | 0.00 | 0.00 | 100 | 1018.2 |
| 20260507182034 | 92 | 206 | 10.4 | 10.4 | 0.00 | 0.00 | 0.00 | 100 | 1018.2 |
| 20260507181535 | 92 | 285 | 5.2 | 11.3 | 0.00 | 0.00 | 0.00 | 100 | 1018.3 |
| 20260507181035 | 92 | 253 | 5.2 | 9.6 | 0.00 | 0.00 | 0.00 | 100 | 1018.3 |
| 20260507180535 | 91 | 278 | 7.0 | 12.2 | 0.00 | 0.00 | 0.00 | 100 | 1018.4 |
| 20260507180035 | 90 | 213 | 5.2 | 10.4 | 0.00 | 0.00 | 0.00 | 100 | 1018.6 |
| 20260507175835 | 91 | 323 | 0.9 | 12.2 | 0.00 | 0.00 | 0.00 | 100 | 1018.7 |
| 20260507175535 | 91 | 323 | 0.9 | 12.2 | 0.00 | 0.00 | 0.00 | 100 | 1018.7 |
| 20260507175035 | 92 | 319 | 0.9 | 10.4 | 0.00 | 0.00 | 0.00 | 100 | 1018.7 |
| 20260507174535 | 93 | 274 | 7.8 | 11.3 | 0.00 | 0.00 | 0.00 | 100 | 1018.7 |
| 20260507174035 | 92 | 236 | 3.5 | 12.2 | 0.00 | 0.00 | 0.00 | 100 | 1018.7 |
| 20260507173535 | 91 | 296 | 4.3 | 10.4 | 0.00 | 0.00 | 0.00 | 100 | 1018.8 |
| 20260507173323 | 91 | 267 | 3.5 | 12.2 | 0.00 | 0.00 | 0.00 | 100 | 1018.8 |
| 20260507173035 | 91 | 208 | 5.2 | 11.3 | 0.00 | 0.00 | 0.00 | 100 | 1018.8 |
| 20260507172535 | 92 | 248 | 4.3 | 13.0 | 0.00 | 0.00 | 0.00 | 100 | 1018.8 |
| 20260507172035 | 91 | 220 | 7.8 | 10.4 | 0.00 | 0.00 | 0.00 | 100 | 1018.8 |
| 20260507171535 | 91 | 267 | 3.5 | 12.2 | 0.00 | 0.00 | 0.00 | 100 | 1018.8 |
| 20260507171035 | 91 | 237 | 7.8 | 15.6 | 0.00 | 0.00 | 0.00 | 100 | 1018.8 |
| 20260507170535 | 89 | 158 | 2.6 | 11.3 | 0.00 | 0.00 | 0.00 | 100 | 1018.7 |
| 20260507170035 | 92 | 177 | 5.2 | 11.3 | 0.00 | 0.00 | 0.00 | 100 | 1018.9 |
| 20260507165535 | 91 | 255 | 6.1 | 12.2 | 0.00 | 0.00 | 0.00 | 100 | 1018.9 |
| 20260507165145 | 92 | 277 | 1.7 | 10.4 | 0.00 | 0.00 | 0.00 | 100 | 1018.9 |
| 20260507165035 | 90 | 300 | 2.6 | 11.3 | 0.00 | 0.00 | 0.00 | 100 | 1018.9 |
| 20260507164535 | 92 | 277 | 1.7 | 10.4 | 0.00 | 0.00 | 0.00 | 100 | 1018.9 |
| 20260507164035 | 90 | 262 | 8.7 | 12.2 | 0.00 | 0.00 | 0.00 | 100 | 1019.1 |
| 20260507163535 | 89 | 244 | 3.5 | 10.4 | 0.00 | 0.00 | 0.00 | 100 | 1019.0 |
| 20260507163035 | 91 | 226 | 8.7 | 13.0 | 0.00 | 0.00 | 0.00 | 100 | 1019.0 |
| 20260507162535 | 91 | 260 | 6.1 | 11.3 | 0.00 | 0.00 | 0.00 | 100 | 1019.1 |
| 20260507162035 | 92 | 236 | 3.5 | 9.6 | 0.00 | 0.00 | 0.00 | 100 | 1019.1 |
| 20260507161535 | 91 | 257 | 7.8 | 12.2 | 0.00 | 0.00 | 0.00 | 100 | 1019.1 |
| 20260507161035 | 90 | 246 | 7.0 | 11.3 | 0.00 | 0.00 | 0.00 | 100 | 1019.1 |
| 20260507160535 | 90 | 230 | 1.7 | 9.6 | 0.00 | 0.00 | 0.00 | 100 | 1019.2 |
| 20260507160035 | 89 | 230 | 7.0 | 13.0 | 0.00 | 0.00 | 0.00 | 100 | 1019.3 |
| 20260507155727 | 90 | 247 | 6.1 | 13.0 | 0.00 | 0.00 | 0.00 | 100 | 1019.3 |
| 20260507155535 | 90 | 247 | 6.1 | 13.0 | 0.00 | 0.00 | 0.00 | 100 | 1019.3 |
| 20260507155035 | 90 | 239 | 11.3 | 13.9 | 0.00 | 0.00 | 0.00 | 100 | 1019.3 |
| 20260507154535 | 88 | 241 | 3.5 | 9.6 | 0.00 | 0.00 | 0.00 | 100 | 1019.3 |
| 20260507154035 | 90 | 250 | 9.6 | 11.3 | 0.00 | 0.00 | 0.00 | 100 | 1019.3 |
| 20260507153535 | 88 | 230 | 7.8 | 11.3 | 0.00 | 0.00 | 0.00 | 100 | 1019.4 |
| 20260507153035 | 88 | 265 | 8.7 | 10.4 | 0.00 | 0.00 | 0.00 | 100 | 1019.3 |
| 20260507152535 | 88 | 277 | 6.1 | 11.3 | 0.00 | 0.00 | 0.00 | 100 | 1019.2 |
| 20260507152035 | 88 | 217 | 7.8 | 9.6 | 0.00 | 0.00 | 0.00 | 100 | 1019.3 |
| 20260507151535 | 87 | 210 | 7.0 | 10.4 | 0.00 | 0.00 | 0.00 | 100 | 1019.3 |
| 20260507151501 | 87 | 281 | 2.6 | 9.6 | 0.00 | 0.00 | 0.00 | 100 | 1019.3 |
| 20260507151035 | 87 | 225 | 7.8 | 11.3 | 0.00 | 0.00 | 0.00 | 100 | 1019.3 |
| 20260507150535 | 87 | 230 | 7.8 | 10.4 | 0.00 | 0.00 | 0.00 | 100 | 1019.3 |
| 20260507150035 | 87 | 216 | 6.1 | 9.6 | 0.00 | 0.00 | 0.00 | 100 | 1019.3 |
| 20260507145535 | 86 | 220 | 8.7 | 13.0 | 0.00 | 0.00 | 0.00 | 100 | 1019.3 |
| 20260507145035 | 86 | 243 | 7.0 | 14.8 | 0.00 | 0.00 | 0.00 | 100 | 1019.2 |
| 20260507144535 | 87 | 281 | 2.6 | 9.6 | 0.00 | 0.00 | 0.00 | 100 | 1019.3 |
| 20260507144035 | 85 | 236 | 4.3 | 9.6 | 0.00 | 0.00 | 0.00 | 100 | 1019.3 |
| 20260507143535 | 84 | 199 | 6.1 | 11.3 | 0.00 | 0.00 | 0.00 | 100 | 1019.2 |
| 20260507143035 | 85 | 237 | 7.8 | 9.6 | 0.00 | 0.00 | 0.00 | 100 | 1019.3 |
| 20260507142535 | 84 | 278 | 2.6 | 9.6 | 0.00 | 0.00 | 0.00 | 100 | 1019.3 |
| 20260507142036 | 85 | 223 | 5.2 | 9.6 | 0.00 | 0.00 | 0.00 | 100 | 1019.2 |
| 20260507141536 | 84 | 206 | 7.0 | 11.3 | 0.00 | 0.00 | 0.00 | 100 | 1019.2 |
| 20260507141255 | 83 | 196 | 8.7 | 9.6 | 0.00 | 0.00 | 0.00 | 100 | 1019.2 |
| 20260507141036 | 83 | 210 | 5.2 | 9.6 | 0.00 | 0.00 | 0.00 | 100 | 1019.2 |
| 20260507140536 | 83 | 196 | 8.7 | 9.6 | 0.00 | 0.00 | 0.00 | 100 | 1019.2 |
| 20260507140521 | 83 | 250 | 4.3 | 8.7 | 0.00 | 0.00 | 0.00 | 100 | 1019.1 |
| 20260507140036 | 83 | 234 | 7.0 | 8.7 | 0.00 | 0.00 | 0.00 | 100 | 1019.3 |
| 20260507135536 | 83 | 237 | 3.5 | 9.6 | 0.00 | 0.00 | 0.00 | 100 | 1019.3 |
| 20260507135036 | 83 | 243 | 2.6 | 10.4 | 0.00 | 0.00 | 0.00 | 100 | 1019.2 |
| 20260507134536 | 83 | 250 | 4.3 | 8.7 | 0.00 | 0.00 | 0.00 | 100 | 1019.1 |
| 20260507134036 | 82 | 226 | 3.5 | 7.0 | 0.00 | 0.00 | 0.00 | 100 | 1019.1 |
| 20260507133536 | 82 | 213 | 7.0 | 7.8 | 0.00 | 0.00 | 0.00 | 100 | 1019.1 |
| 20260507133036 | 81 | 203 | 2.6 | 7.0 | 0.00 | 0.00 | 0.00 | 100 | 1019.0 |
| 20260507132536 | 80 | 178 | 2.6 | 7.8 | 0.00 | 0.00 | 0.00 | 100 | 1019.0 |
| 20260507132036 | 80 | 177 | 6.1 | 7.0 | 0.00 | 0.00 | 0.00 | 100 | 1018.9 |
| 20260507131649 | 79 | 175 | 3.5 | 9.6 | 0.00 | 0.00 | 0.00 | 100 | 1018.9 |
| 20260507131536 | 79 | 175 | 3.5 | 9.6 | 0.00 | 0.00 | 0.00 | 100 | 1018.9 |
| 20260507131036 | 80 | 206 | 6.1 | 7.8 | 0.00 | 0.00 | 0.00 | 100 | 1018.8 |
| 20260507130536 | 79 | 219 | 7.0 | 7.0 | 0.00 | 0.00 | 0.00 | 100 | 1018.8 |
| 20260507130206 | 79 | 188 | 0.9 | 4.3 | 0.00 | 0.00 | 0.00 | 100 | 1018.9 |
| 20260507130036 | 79 | 188 | 0.9 | 4.3 | 0.00 | 0.00 | 0.00 | 100 | 1018.9 |
| 20260507125536 | 78 | 243 | 0.9 | 3.5 | 0.00 | 0.00 | 0.00 | 100 | 1018.8 |
| 20260507125036 | 78 | 158 | 1.7 | 3.5 | 0.00 | 0.00 | 0.00 | 100 | 1018.8 |
| 20260507124536 | 78 | 229 | 3.5 | 4.3 | 0.00 | 0.00 | 0.00 | 100 | 1018.9 |
| 20260507124036 | 77 | 232 | 3.5 | 3.5 | 0.00 | 0.00 | 0.00 | 100 | 1018.8 |
| 20260507123536 | 77 | 232 | 1.7 | 3.5 | 0.00 | 0.00 | 0.00 | 100 | 1018.8 |
| 20260507123036 | 76 | 215 | 2.6 | 2.6 | 0.00 | 0.00 | 0.00 | 100 | 1018.8 |
| 20260507122536 | 75 | 215 | 0.9 | 2.6 | 0.00 | 0.00 | 0.00 | 100 | 1018.8 |
| 20260507122036 | 74 | 172 | 0.0 | 1.7 | 0.00 | 0.00 | 0.00 | 100 | 1018.7 |
| 20260507121536 | 73 | 187 | 0.9 | 3.5 | 0.00 | 0.00 | 0.00 | 100 | 1018.7 |
| 20260507121036 | 72 | 201 | 0.0 | 0.0 | 0.00 | 0.00 | 0.00 | 100 | 1018.6 |
| 20260507120536 | 71 | 201 | 0.0 | 0.0 | 0.00 | 0.00 | 0.00 | 100 | 1018.6 |
| 20260507120036 | 70 | 201 | 0.0 | 0.0 | 0.00 | 0.00 | 0.00 | 100 | 1018.6 |
| 20260507115536 | 70 | 201 | 0.0 | 0.9 | 0.00 | 0.00 | 0.00 | 100 | 1018.5 |
| 20260507115036 | 69 | 42 | 0.0 | 0.0 | 0.00 | 0.00 | 0.00 | 100 | 1018.5 |
| 20260507114619 | 69 | 42 | 0.0 | 0.0 | 0.00 | 0.00 | 0.00 | 100 | 1018.5 |
| 20260507114536 | 69 | 42 | 0.0 | 0.0 | 0.00 | 0.00 | 0.00 | 100 | 1018.5 |
| 20260507114036 | 67 | 42 | 0.0 | 0.0 | 0.00 | 0.00 | 0.00 | 100 | 1018.4 |
| 20260507113536 | 66 | 42 | 0.0 | 0.0 | 0.00 | 0.00 | 0.00 | 100 | 1018.4 |
| 20260507113036 | 66 | 42 | 0.0 | 0.0 | 0.00 | 0.00 | 0.00 | 100 | 1018.5 |
| 20260507112536 | 64 | 42 | 0.0 | 0.0 | 0.00 | 0.00 | 0.00 | 100 | 1018.5 |
| 20260507112036 | 64 | 42 | 0.0 | 0.0 | 0.00 | 0.00 | 0.00 | 100 | 1018.4 |
| 20260507111536 | 63 | 42 | 0.0 | 0.0 | 0.00 | 0.00 | 0.00 | 100 | 1018.4 |
| 20260507111036 | 62 | 42 | 0.0 | 0.0 | 0.00 | 0.00 | 0.00 | 100 | 1018.4 |
| 20260507110536 | 62 | 42 | 0.0 | 0.0 | 0.00 | 0.00 | 0.00 | 100 | 1018.4 |
| 20260507110036 | 61 | 42 | 0.0 | 0.0 | 0.00 | 0.00 | 0.00 | 100 | 1018.3 |
| 20260507105536 | 61 | 42 | 0.0 | 0.0 | 0.00 | 0.00 | 0.00 | 100 | 1018.3 |
| 20260507105036 | 61 | 42 | 0.0 | 0.0 | 0.00 | 0.00 | 0.00 | 100 | 1018.2 |
| 20260507104536 | 61 | 42 | 0.0 | 0.0 | 0.00 | 0.00 | 0.00 | 100 | 1018.2 |
| 20260507104118 | 61 | 42 | 0.0 | 0.0 | 0.00 | 0.00 | 0.00 | 100 | 1018.1 |
| 20260507104036 | 61 | 42 | 0.0 | 0.0 | 0.00 | 0.00 | 0.00 | 100 | 1018.1 |
| 20260507103536 | 62 | 42 | 0.0 | 0.0 | 0.00 | 0.00 | 0.00 | 100 | 1018.1 |
| 20260507103116 | 62 | 42 | 0.0 | 0.0 | 0.00 | 0.00 | 0.00 | 100 | 1017.8 |
| 20260507103036 | 61 | 42 | 0.0 | 0.0 | 0.00 | 0.00 | 0.00 | 100 | 1018.0 |
| 20260507102536 | 62 | 42 | 0.0 | 0.0 | 0.00 | 0.00 | 0.00 | 100 | 1017.8 |
| 20260507102037 | 62 | 42 | 0.0 | 0.0 | 0.00 | 0.00 | 0.00 | 100 | 1018.0 |
| 20260507101537 | 62 | 42 | 0.0 | 0.0 | 0.00 | 0.00 | 0.00 | 100 | 1017.8 |
| 20260507101037 | 62 | 42 | 0.0 | 0.0 | 0.00 | 0.00 | 0.00 | 100 | 1017.8 |
| 20260507100537 | 63 | 42 | 0.0 | 0.0 | 0.00 | 0.00 | 0.00 | 100 | 1017.6 |
| 20260507100104 | 62 | 42 | 0.0 | 0.0 | 0.00 | 0.00 | 0.00 | 100 | 1017.7 |
| 20260507100037 | 63 | 42 | 0.0 | 0.0 | 0.00 | 0.00 | 0.00 | 100 | 1017.7 |
| 20260507095537 | 63 | 42 | 0.0 | 0.0 | 0.00 | 0.00 | 0.00 | 100 | 1017.7 |
| 20260507095037 | 63 | 42 | 0.0 | 0.0 | 0.00 | 0.00 | 0.00 | 100 | 1017.6 |
| 20260507094537 | 62 | 42 | 0.0 | 0.0 | 0.00 | 0.00 | 0.00 | 100 | 1017.7 |
| 20260507094037 | 63 | 42 | 0.0 | 0.0 | 0.00 | 0.00 | 0.00 | 100 | 1017.8 |
| 20260507093537 | 63 | 42 | 0.0 | 0.0 | 0.00 | 0.00 | 0.00 | 100 | 1017.7 |
| 20260507093321 | 63 | 42 | 0.0 | 0.0 | 0.00 | 0.00 | 0.00 | 100 | 1017.7 |
| 20260507093240 | 63 | 42 | 0.0 | 0.0 | 0.00 | 0.00 | 0.00 | 100 | 1017.7 |
| 20260507093037 | 63 | 42 | 0.0 | 0.0 | 0.00 | 0.00 | 0.00 | 100 | 1017.7 |
| 20260507092537 | 63 | 42 | 0.0 | 0.0 | 0.00 | 0.00 | 0.00 | 100 | 1017.6 |
| 20260507092037 | 64 | 42 | 0.0 | 0.0 | 0.00 | 0.00 | 0.00 | 100 | 1017.7 |
| 20260507091613 | 64 | 42 | 0.0 | 0.0 | 0.00 | 0.00 | 0.00 | 100 | 1017.6 |
| 20260507091537 | 64 | 42 | 0.0 | 0.0 | 0.00 | 0.00 | 0.00 | 100 | 1017.6 |
| 20260507091136 | 64 | 42 | 0.0 | 0.0 | 0.00 | 0.00 | 0.00 | 100 | 1017.6 |
| 20260507091037 | 64 | 42 | 0.0 | 0.0 | 0.00 | 0.00 | 0.00 | 100 | 1017.6 |
| 20260507090537 | 64 | 42 | 0.0 | 0.0 | 0.00 | 0.00 | 0.00 | 100 | 1017.5 |
| 20260507090037 | 64 | 42 | 0.0 | 0.0 | 0.00 | 0.00 | 0.00 | 100 | 1017.5 |
| 20260507085537 | 64 | 42 | 0.0 | 0.0 | 0.00 | 0.00 | 0.00 | 100 | 1017.4 |
| 20260507085037 | 65 | 42 | 0.0 | 0.0 | 0.00 | 0.00 | 0.00 | 100 | 1017.3 |
| 20260507084537 | 65 | 42 | 0.0 | 0.0 | 0.00 | 0.00 | 0.00 | 100 | 1017.2 |
| 20260507084329 | 66 | 42 | 0.0 | 0.0 | 0.00 | 0.00 | 0.00 | 100 | 1017.2 |
| 20260507084154 | 65 | 42 | 0.0 | 0.0 | 0.00 | 0.00 | 0.00 | 100 | 1017.1 |
| 20260507084037 | 65 | 42 | 0.0 | 0.0 | 0.00 | 0.00 | 0.00 | 100 | 1017.1 |
| 20260507083537 | 65 | 42 | 0.0 | 0.0 | 0.00 | 0.00 | 0.00 | 100 | 1017.1 |
| 20260507083037 | 64 | 42 | 0.0 | 0.0 | 0.00 | 0.00 | 0.00 | 100 | 1017.1 |
| 20260507082537 | 65 | 42 | 0.0 | 0.0 | 0.00 | 0.00 | 0.00 | 100 | 1017.0 |
| 20260507082132 | 65 | 42 | 0.0 | 0.0 | 0.00 | 0.00 | 0.00 | 100 | 1017.0 |
| 20260507082037 | 65 | 42 | 0.0 | 0.0 | 0.00 | 0.00 | 0.00 | 100 | 1017.0 |
| 20260507081537 | 65 | 42 | 0.0 | 0.0 | 0.00 | 0.00 | 0.00 | 100 | 1017.1 |
| 20260507081037 | 66 | 42 | 0.0 | 0.0 | 0.00 | 0.00 | 0.00 | 100 | 1017.3 |
| 20260507080537 | 66 | 42 | 0.0 | 0.0 | 0.00 | 0.00 | 0.00 | 100 | 1017.2 |
| 20260507080455 | 67 | 42 | 0.0 | 0.0 | 0.00 | 0.00 | 0.00 | 100 | 1017.2 |
| 20260507080037 | 67 | 42 | 0.0 | 0.0 | 0.00 | 0.00 | 0.00 | 100 | 1017.2 |
| 20260507075537 | 66 | 42 | 0.0 | 0.0 | 0.00 | 0.00 | 0.00 | 100 | 1017.2 |
| 20260507075037 | 66 | 42 | 0.0 | 0.0 | 0.00 | 0.00 | 0.00 | 100 | 1017.1 |
| 20260507074537 | 65 | 42 | 0.0 | 0.0 | 0.00 | 0.00 | 0.00 | 100 | 1017.0 |
| 20260507074037 | 65 | 42 | 0.0 | 0.0 | 0.00 | 0.00 | 0.00 | 100 | 1017.0 |
| 20260507073537 | 65 | 42 | 0.0 | 0.0 | 0.00 | 0.00 | 0.00 | 100 | 1017.0 |
| 20260507073037 | 65 | 42 | 0.0 | 0.0 | 0.00 | 0.00 | 0.00 | 100 | 1016.9 |
| 20260507072615 | 65 | 42 | 0.0 | 0.0 | 0.00 | 0.00 | 0.00 | 100 | 1017.0 |
| 20260507072537 | 65 | 42 | 0.0 | 0.0 | 0.00 | 0.00 | 0.00 | 100 | 1017.0 |
| 20260507072037 | 65 | 42 | 0.0 | 0.9 | 0.00 | 0.00 | 0.00 | 100 | 1017.0 |
| 20260507071537 | 65 | 46 | 0.0 | 0.0 | 0.00 | 0.00 | 0.00 | 100 | 1017.0 |
| 20260507071037 | 65 | 46 | 0.0 | 0.0 | 0.00 | 0.00 | 0.00 | 100 | 1017.1 |
| 20260507070623 | 65 | 46 | 0.0 | 0.0 | 0.00 | 0.00 | 0.00 | 100 | 1017.2 |
| 20260507070537 | 65 | 46 | 0.0 | 0.0 | 0.00 | 0.00 | 0.00 | 100 | 1017.2 |
| 20260507070037 | 65 | 46 | 0.0 | 0.0 | 0.00 | 0.00 | 0.00 | 100 | 1017.3 |
| 20260507065537 | 66 | 46 | 0.0 | 0.0 | 0.00 | 0.00 | 0.00 | 100 | 1017.4 |
| 20260507065037 | 66 | 46 | 0.0 | 0.0 | 0.00 | 0.00 | 0.00 | 100 | 1017.4 |
| 20260507064537 | 66 | 46 | 0.0 | 0.0 | 0.00 | 0.00 | 0.00 | 100 | 1017.6 |
| 20260507064037 | 66 | 46 | 0.0 | 0.0 | 0.00 | 0.00 | 0.00 | 100 | 1017.6 |
| 20260507063826 | 66 | 46 | 0.0 | 0.0 | 0.00 | 0.00 | 0.00 | 100 | 1018.1 |
| 20260507063537 | 66 | 46 | 0.0 | 0.0 | 0.00 | 0.00 | 0.00 | 100 | 1017.8 |
| 20260507063038 | 66 | 46 | 0.0 | 0.0 | 0.00 | 0.00 | 0.00 | 100 | 1018.1 |
| 20260507062537 | 66 | 46 | 0.0 | 0.0 | 0.00 | 0.00 | 0.00 | 100 | 1018.1 |
| 20260507062038 | 66 | 46 | 0.0 | 0.0 | 0.00 | 0.00 | 0.00 | 100 | 1018.0 |
| 20260507061538 | 66 | 46 | 0.0 | 0.0 | 0.00 | 0.00 | 0.00 | 100 | 1018.1 |
| 20260507061150 | 66 | 46 | 0.0 | 0.0 | 0.00 | 0.00 | 0.00 | 100 | 1018.3 |
| 20260507061038 | 66 | 46 | 0.0 | 0.0 | 0.00 | 0.00 | 0.00 | 100 | 1018.3 |